Regional Weather Roundup
Issued by NWS Nashville, TN

Home | Current Version | Previous Version | Text Only | Print | Product List | Glossary On
Versions: 1 2 3 4 5 6 7 8 9 10 11 12 13 14 15 16 17 18 19 20 21 22 23 24 25 26 27 28
000
ASUS44 KOHX 221510
RWROHX
MIDDLE TENNESSEE HOURLY WEATHER ROUNDUP
NATIONAL WEATHER SERVICE NASHVILLE TN
900 AM CST WED FEB 22 2017

NOTE: "FAIR" INDICATES FEW OR NO CLOUDS BELOW 12,000 FEET WITH
NO SIGNIFICANT WEATHER AND/OR OBSTRUCTIONS TO VISIBILITY.

* THESE REPORTS ARE NOT UNDER NWS QUALITY CONTROL AND MAY NOT
  REPORT WEATHER SUCH AS PRECIPITATION AND FOG.


TNZ005>011-023>034-057-059-062>066-078-080-221600
...NORTHERN MIDDLE TENNESSEE...

CITY           SKY/WX    TMP DP  RH WIND       PRES   REMARKS
CLARKSVILLE    CLOUDY    59  55  87 CALM      29.92R
CROSSVILLE     CLOUDY    54  52  93 SE8       29.96F
GALLATIN       CLOUDY    59  55  88 CALM      29.95F
DICKSON        CLOUDY    58  56  93 CALM      29.91R
LIVINGSTON     CLOUDY    57  53  86 CALM      29.95R
NASHVILLE      CLOUDY    58  55  90 VRB3      29.93S FOG
PORTLAND       CLOUDY    59  57  94 SE5       29.93S
SMYRNA         CLOUDY    57  56  96 NW6       29.95R
SPARTA         MOSUNNY   59  57  94 N5        29.92R
SPRINGFIELD    SUNNY     59  57  94 CALM      29.91R
WEST NASHVILLE CLOUDY    55  55 100 CALM      29.92F
$$
TNZ056-058-060-061-075>077-079-093>097-221600
...SOUTHERN MIDDLE TENNESSEE...

CITY           SKY/WX    TMP DP  RH WIND       PRES   REMARKS
COLUMBIA       CLOUDY   N/A N/A N/A N3        29.91R
FAYETTEVILLE   SUNNY     61  59  94 SE12      29.87F
MCMINNVILLE    SUNNY     61  59  94 E6        29.91R
MURFREESBORO   CLOUDY    58  57  96 N6        29.93
SHELBYVILLE    PTSUNNY   63  61  94 N9        29.92R
TULLAHOMA      SUNNY     59  55  88 SE7       29.90S
WINCHESTER     SUNNY     61  57  88 SE13      29.89F
$$


...KEY TO REMARKS...
VSB - VISIBILITY IN MILES
WCI - WIND CHILL INDEX
HX  - HEAT INDEX





USA.gov is the U.S. government's official web portal to all federal, state and local government web resources and services.